User: anonymous   Login
Location: Unspecified
(0.0000°N, 0.0000°E)
Time: 19:33:23
(UTC+02:00)
Language:

Meteor PRIRODA - Orbit

View from above orbital plane
View from above orbital plane
View from above satellite
View from above satellite

Ground track
Ground track

The orbit data is extracted from the following two-line orbital elements,

1 12585U 81065A   15108.51479432  .00006251  00000-0  31722-3 0  9993
2 12585 097.3452 094.3283 0014021 285.0364 227.8564 15.17181719842232
Epoch (UTC): 18 April 2015 12:21:18
Eccentricity: 0.0014021
inclination: 97.3452°
perigee height: 505 km
apogee height: 524 km
right ascension of ascending node: 94.3283°
argument of perigee: 285.0364°
revolutions per day: 15.17181719
mean anomaly at epoch: 227.8564°
orbit number at epoch: 84223

The dashed part of the orbit path shows where the satellite is in the earth's shadow,  

DLR